Change the Weather History Date:

Saturday, November 23, 2013

  Actual Average Record
Temperature  
Mean Temperature 18 °F -  
Max Temperature 23 °F 47 °F 68 °F (1966)
Min Temperature 12 °F 31 °F 4 °F (1950)
Degree Days  
Heating Degree Days 48    
Moisture  
Dew Point 11 °F    
Average Humidity 70    
Maximum Humidity 93    
Minimum Humidity 50    
Precipitation  
Precipitation 0.00 in - - ()
Sea Level Pressure  
Sea Level Pressure 30.68 in    
Wind  
Wind Speed 9 mph (NW)    
Max Wind Speed 22 mph    
Max Gust Speed 28 mph    
Visibility 10 miles    
Events      
Averages and records for this station are not official NWS values.
T = Trace of Precipitation, MM = Missing Value Source: NWS Daily Summary

Daily Weather History Graph

Daily Weather History Graph

Search for Another Location

Airport or City:

Trip Planner

Search our weather history database for the weather conditions in past years. The results will help you decide how hot, cold, wet, or windy it might be!

Date:

Astronomy

Nov. 23, 2013 Rise Set
Actual Time 7:01 AM CST 4:42 PM CST
Civil Twilight 6:31 AM CST 5:12 PM CST
Nautical Twilight 5:58 AM CST 5:45 PM CST
Astronomical Twilight 5:25 AM CST 6:18 PM CST
Moon 10:12 PM CST (11/23) 11:17 AM CST (11/23)
Length of Visible Light 10h 40m
Length of Day
9h 41m
Waning Gibbous, 69% of the Moon is Illuminated
Nov 23
Waning Gibbous
Nov 25
Last Quarter
Dec 2
New
Dec 9
First Quarter
Dec 17
Full

Hourly Weather History & Observations

Time (CST) Temp. Windchill Dew Point Humidity Pressure Visibility Wind Dir Wind Speed Gust Speed Precip Events Conditions
12:15 AM 19.4 °F 11.5 °F 17.6 °F 93% 30.56 in 10.0 mi WSW 5.8 mph - N/A   Clear
12:35 AM 19.4 °F 12.8 °F 17.6 °F 93% 30.55 in 10.0 mi West 4.6 mph - N/A   Clear
12:55 AM 19.4 °F 11.5 °F 17.6 °F 93% 30.56 in 10.0 mi West 5.8 mph - N/A   Clear
1:15 AM 19.4 °F 12.8 °F 17.6 °F 93% 30.56 in 10.0 mi West 4.6 mph - N/A   Clear
1:35 AM 19.4 °F 11.5 °F 17.6 °F 93% 30.57 in 10.0 mi WNW 5.8 mph - N/A   Clear
1:55 AM 19.4 °F 10.4 °F 15.8 °F 86% 30.57 in 10.0 mi West 6.9 mph - N/A   Clear
2:15 AM 21.2 °F 12.6 °F 15.8 °F 80% 30.57 in 10.0 mi WNW 6.9 mph - N/A   Clear
2:35 AM 21.2 °F 11.7 °F 15.8 °F 80% 30.56 in 10.0 mi NW 8.1 mph - N/A   Clear
2:55 AM 21.2 °F 11.7 °F 15.8 °F 80% 30.56 in 10.0 mi NW 8.1 mph - N/A   Clear
3:15 AM 21.2 °F 12.6 °F 14.0 °F 74% 30.56 in 10.0 mi NW 6.9 mph 12.7 mph N/A   Clear
3:35 AM 21.2 °F 12.6 °F 15.8 °F 80% 30.56 in 10.0 mi NW 6.9 mph - N/A   Clear
3:55 AM 21.2 °F 12.6 °F 15.8 °F 80% 30.56 in 10.0 mi NW 6.9 mph - N/A   Clear
4:15 AM 21.2 °F 10.9 °F 15.8 °F 80% 30.57 in 10.0 mi NW 9.2 mph - N/A   Clear
4:35 AM 21.2 °F 12.6 °F 15.8 °F 80% 30.58 in 10.0 mi NW 6.9 mph 12.7 mph N/A   Clear
4:55 AM 23.0 °F 13.9 °F 15.8 °F 74% 30.58 in 10.0 mi NNW 8.1 mph 15.0 mph N/A   Clear
5:15 AM 23.0 °F 13.1 °F 15.8 °F 74% 30.58 in 10.0 mi NNW 9.2 mph - N/A   Clear
5:35 AM 23.0 °F 13.1 °F 15.8 °F 74% 30.59 in 10.0 mi NNW 9.2 mph - N/A   Clear
5:55 AM 21.2 °F 10.1 °F 15.8 °F 80% 30.60 in 10.0 mi NW 10.4 mph - N/A   Clear
6:15 AM 21.2 °F 8.9 °F 15.8 °F 80% 30.60 in 10.0 mi NNW 12.7 mph - N/A   Clear
6:35 AM 21.2 °F 9.5 °F 15.8 °F 80% 30.60 in 10.0 mi NNW 11.5 mph - N/A   Clear
6:55 AM 21.2 °F 9.5 °F 15.8 °F 80% 30.61 in 10.0 mi NNW 11.5 mph 20.7 mph N/A   Clear
7:15 AM 21.2 °F 10.1 °F 15.8 °F 80% 30.63 in 10.0 mi NNW 10.4 mph - N/A   Clear
7:35 AM 21.2 °F 8.9 °F 15.8 °F 80% 30.64 in 10.0 mi NNW 12.7 mph 18.4 mph N/A   Clear
7:55 AM 21.2 °F 7.8 °F 15.8 °F 80% 30.65 in 10.0 mi NNW 15.0 mph - N/A   Clear
8:15 AM 21.2 °F 9.5 °F 14.0 °F 74% 30.66 in 10.0 mi NNW 11.5 mph 23.0 mph N/A   Clear
8:35 AM 21.2 °F 5.2 °F 12.2 °F 68% 30.67 in 10.0 mi NW 21.9 mph - N/A   Clear
8:55 AM 21.2 °F 8.3 °F 12.2 °F 68% 30.67 in 10.0 mi NNW 13.8 mph 23.0 mph N/A   Clear
9:15 AM 19.4 °F 4.5 °F 10.4 °F 68% 30.69 in 10.0 mi NNW 17.3 mph 26.5 mph N/A   Clear
9:35 AM 21.2 °F 6.0 °F 10.4 °F 63% 30.69 in 10.0 mi NNW 19.6 mph 27.6 mph N/A   Clear
9:55 AM 21.2 °F 6.0 °F 12.2 °F 68% 30.70 in 10.0 mi NW 19.6 mph - N/A   Clear
10:15 AM 21.2 °F 6.4 °F 10.4 °F 63% 30.70 in 10.0 mi NNW 18.4 mph - N/A   Clear
10:35 AM 21.2 °F 6.8 °F 10.4 °F 63% 30.70 in 10.0 mi NNW 17.3 mph 23.0 mph N/A   Clear
10:55 AM 21.2 °F 6.0 °F 8.6 °F 58% 30.71 in 10.0 mi NNW 19.6 mph 26.5 mph N/A   Clear
11:15 AM 23.0 °F 10.1 °F 8.6 °F 54% 30.70 in 10.0 mi NNW 15.0 mph 24.2 mph N/A   Clear
11:35 AM 23.0 °F 10.1 °F 8.6 °F 54% 30.70 in 10.0 mi NNW 15.0 mph 24.2 mph N/A   Clear
11:55 AM 23.0 °F 9.2 °F 8.6 °F 54% 30.70 in 10.0 mi NNW 17.3 mph 24.2 mph N/A   Clear
12:15 PM 23.0 °F 10.1 °F 8.6 °F 54% 30.70 in 10.0 mi NNW 15.0 mph 24.2 mph N/A   Clear
12:35 PM 23.0 °F 9.2 °F 8.6 °F 54% 30.70 in 10.0 mi NNW 17.3 mph 26.5 mph N/A   Clear
12:55 PM 23.0 °F 10.6 °F 8.6 °F 54% 30.70 in 10.0 mi NNW 13.8 mph 23.0 mph N/A   Clear
1:15 PM 23.0 °F 10.6 °F 8.6 °F 54% 30.71 in 10.0 mi NW 13.8 mph 23.0 mph N/A   Clear
1:35 PM 23.0 °F 9.6 °F 8.6 °F 54% 30.71 in 10.0 mi NNW 16.1 mph 23.0 mph N/A   Clear
1:55 PM 23.0 °F 11.1 °F 8.6 °F 54% 30.71 in 10.0 mi NNW 12.7 mph 23.0 mph N/A   Clear
2:15 PM 23.0 °F 11.7 °F 8.6 °F 54% 30.71 in 10.0 mi NNW 11.5 mph 20.7 mph N/A   Clear
2:35 PM 23.0 °F 10.6 °F 6.8 °F 50% 30.71 in 10.0 mi NNW 13.8 mph 20.7 mph N/A   Clear
2:55 PM 23.0 °F 10.6 °F 8.6 °F 54% 30.72 in 10.0 mi NW 13.8 mph - N/A   Clear
3:15 PM 23.0 °F 11.1 °F 6.8 °F 50% 30.72 in 10.0 mi North 12.7 mph 20.7 mph N/A   Clear
3:35 PM 23.0 °F 12.4 °F 6.8 °F 50% 30.74 in 10.0 mi NNW 10.4 mph 20.7 mph N/A   Clear
3:55 PM 21.2 °F 8.3 °F 6.8 °F 54% 30.73 in 10.0 mi NNW 13.8 mph 21.9 mph N/A   Clear
4:15 PM 21.2 °F 10.1 °F 6.8 °F 54% 30.74 in 10.0 mi NNW 10.4 mph 18.4 mph N/A   Clear
4:35 PM 21.2 °F 9.5 °F 6.8 °F 54% 30.74 in 10.0 mi NNW 11.5 mph 18.4 mph N/A   Clear
4:55 PM 19.4 °F 7.2 °F 6.8 °F 58% 30.74 in 10.0 mi NNW 11.5 mph 17.3 mph N/A   Clear
5:15 PM 19.4 °F 8.6 °F 6.8 °F 58% 30.74 in 10.0 mi NNW 9.2 mph - N/A   Clear
5:35 PM 19.4 °F 8.6 °F 8.6 °F 63% 30.74 in 10.0 mi NNW 9.2 mph - N/A   Clear
5:55 PM 17.6 °F 5.7 °F 8.6 °F 68% 30.74 in 10.0 mi NNW 10.4 mph - N/A   Clear
6:15 PM 17.6 °F 5.7 °F 8.6 °F 68% 30.75 in 10.0 mi NNW 10.4 mph 16.1 mph N/A   Clear
6:35 PM 17.6 °F 6.4 °F 6.8 °F 63% 30.75 in 10.0 mi NNW 9.2 mph - N/A   Clear
6:55 PM 17.6 °F 7.3 °F 6.8 °F 63% 30.75 in 10.0 mi NNW 8.1 mph 13.8 mph N/A   Clear
7:15 PM 15.8 °F 6.1 °F 8.6 °F 73% 30.75 in 10.0 mi NNW 6.9 mph - N/A   Clear
7:35 PM 15.8 °F 6.1 °F 8.6 °F 73% 30.76 in 10.0 mi NNW 6.9 mph - N/A   Clear
7:55 PM 15.8 °F 6.1 °F 8.6 °F 73% 30.76 in 10.0 mi NNW 6.9 mph 13.8 mph N/A   Clear
8:15 PM 15.8 °F 6.1 °F 8.6 °F 73% 30.75 in 10.0 mi North 6.9 mph - N/A   Clear
8:35 PM 15.8 °F 6.1 °F 8.6 °F 73% 30.75 in 10.0 mi NNW 6.9 mph - N/A   Clear
8:55 PM 15.8 °F 7.2 °F 8.6 °F 73% 30.75 in 10.0 mi NNW 5.8 mph 12.7 mph N/A   Clear
9:15 PM 14.0 °F - 8.6 °F 79% 30.75 in 10.0 mi Calm Calm - N/A   Clear
9:35 PM 14.0 °F - 8.6 °F 79% 30.76 in 10.0 mi Calm Calm - N/A   Clear
9:55 PM 14.0 °F 6.5 °F 6.8 °F 73% 30.76 in 10.0 mi NNW 4.6 mph - N/A   Clear
10:15 PM 14.0 °F 6.5 °F 6.8 °F 73% 30.75 in 10.0 mi NNW 4.6 mph - N/A   Clear
10:35 PM 14.0 °F 6.5 °F 6.8 °F 73% 30.75 in 10.0 mi NNW 4.6 mph - N/A   Clear
10:55 PM 12.2 °F 4.3 °F 6.8 °F 79% 30.74 in 10.0 mi NNW 4.6 mph - N/A   Clear
11:15 PM 14.0 °F 5.1 °F 8.6 °F 79% 30.74 in 10.0 mi North 5.8 mph - N/A   Clear
11:35 PM 12.2 °F - 8.6 °F 85% 30.74 in 10.0 mi Calm Calm - N/A   Clear
11:55 PM 12.2 °F - 6.8 °F 79% 30.74 in 10.0 mi Calm Calm - N/A   Clear